TimeCDT,TemperatureF,Dew PointF,Humidity,Sea Level PressureIn,VisibilityMPH,Wind Direction,Wind SpeedMPH,Gust SpeedMPH,PrecipitationIn,Events,Conditions,WindDirDegrees,DateUTC
12:53 AM,55.9,48.9,77,30.03,10.0,SE,12.7,-,N/A,,Overcast,140,2014-03-27 05:53:00
1:53 AM,57.0,50.0,77,30.01,10.0,SSE,13.8,-,N/A,,Overcast,150,2014-03-27 06:53:00
2:53 AM,57.0,51.1,81,29.99,10.0,SE,11.5,-,N/A,,Overcast,140,2014-03-27 07:53:00
3:53 AM,57.9,52.0,81,29.96,10.0,SE,9.2,-,N/A,,Overcast,140,2014-03-27 08:53:00
4:08 AM,57.9,52.0,81,29.95,10.0,SE,10.4,-,N/A,,Overcast,140,2014-03-27 09:08:00
4:53 AM,57.9,53.1,84,29.93,9.0,SSE,10.4,-,N/A,,Overcast,150,2014-03-27 09:53:00
5:53 AM,59.0,54.0,83,29.91,9.0,SSE,13.8,-,N/A,,Overcast,150,2014-03-27 10:53:00
6:53 AM,60.1,55.0,83,29.92,9.0,SE,11.5,-,N/A,,Overcast,140,2014-03-27 11:53:00
7:04 AM,60.1,55.0,83,29.92,9.0,SE,11.5,-,N/A,,Overcast,140,2014-03-27 12:04:00
7:53 AM,62.1,55.9,80,29.93,8.0,SSE,12.7,-,N/A,,Overcast,150,2014-03-27 12:53:00
8:33 AM,62.1,55.9,80,29.93,8.0,SE,13.8,-,N/A,,Overcast,140,2014-03-27 13:33:00
8:53 AM,62.1,57.0,84,29.92,8.0,SE,13.8,-,N/A,,Overcast,140,2014-03-27 13:53:00
9:53 AM,63.0,57.0,81,29.92,8.0,SE,11.5,-,N/A,,Overcast,140,2014-03-27 14:53:00
10:53 AM,64.9,59.0,81,29.91,7.0,SSE,15.0,23.0,N/A,,Overcast,150,2014-03-27 15:53:00
11:37 AM,64.9,60.1,84,29.93,5.0,SSE,12.7,-,N/A,,Haze,160,2014-03-27 16:37:00
11:53 AM,66.0,61.0,84,29.92,5.0,SSE,15.0,-,0.00,Rain,Light Rain,150,2014-03-27 16:53:00
12:40 PM,66.0,62.1,87,29.91,2.5,SE,13.8,-,0.00,,Overcast,140,2014-03-27 17:40:00
12:53 PM,66.0,62.1,87,29.90,2.5,SSE,13.8,-,0.00,,Overcast,150,2014-03-27 17:53:00
1:11 PM,66.0,62.1,87,29.90,3.0,SSE,10.4,-,N/A,,Overcast,160,2014-03-27 18:11:00
1:30 PM,66.9,63.0,87,29.90,2.5,SSE,10.4,-,0.00,Rain,Light Rain,160,2014-03-27 18:30:00
1:53 PM,66.9,63.0,87,29.88,2.0,SSE,11.5,-,0.00,Rain,Light Rain,150,2014-03-27 18:53:00
2:04 PM,66.9,64.0,90,29.88,1.8,SSE,10.4,-,0.00,Rain,Light Rain,150,2014-03-27 19:04:00
2:26 PM,68.0,64.0,87,29.86,2.5,SSE,15.0,-,0.00,,Overcast,150,2014-03-27 19:26:00
2:43 PM,68.0,64.0,87,29.85,3.0,SSE,12.7,-,0.00,Rain,Light Rain,160,2014-03-27 19:43:00
2:53 PM,68.0,64.0,87,29.84,2.0,SSE,15.0,-,0.00,Thunderstorm,Overcast,160,2014-03-27 19:53:00
3:11 PM,68.0,64.9,90,29.84,2.0,South,9.2,-,0.01,Rain,Light Rain,170,2014-03-27 20:11:00
3:40 PM,68.0,64.9,90,29.83,2.0,South,6.9,-,0.02,Rain-Thunderstorm,Light Thunderstorms and Rain,170,2014-03-27 20:40:00
3:49 PM,68.0,64.4,88,29.82,0.8,SSE,8.1,-,0.16,Rain-Thunderstorm,Heavy Thunderstorms and Rain,160,2014-03-27 20:49:00
3:53 PM,68.0,64.9,90,29.82,0.8,SW,8.1,-,0.19,Rain-Thunderstorm,Heavy Thunderstorms and Rain,220,2014-03-27 20:53:00
4:05 PM,68.0,64.9,90,29.83,1.0,South,5.8,-,0.05,Rain-Thunderstorm,Thunderstorms and Rain,190,2014-03-27 21:05:00
4:19 PM,68.0,64.9,90,29.82,1.5,South,9.2,-,0.07,Rain,Light Rain,180,2014-03-27 21:19:00
4:35 PM,69.1,64.9,87,29.81,2.5,South,8.1,-,0.07,Rain,Light Rain,180,2014-03-27 21:35:00
4:42 PM,69.1,66.0,90,29.81,3.0,South,9.2,-,0.07,Thunderstorm,Overcast,180,2014-03-27 21:42:00
4:53 PM,69.1,66.0,90,29.80,3.0,South,9.2,-,0.07,Thunderstorm,Overcast,170,2014-03-27 21:53:00
5:03 PM,69.1,66.0,90,29.81,4.0,South,9.2,-,N/A,,Overcast,170,2014-03-27 22:03:00
5:53 PM,70.0,66.9,90,29.79,9.0,South,10.4,-,N/A,,Overcast,170,2014-03-27 22:53:00
6:53 PM,71.1,66.0,84,29.78,10.0,South,6.9,-,N/A,,Overcast,190,2014-03-27 23:53:00
7:53 PM,70.0,66.0,87,29.80,8.0,SSW,8.1,-,0.00,Rain,Light Rain,200,2014-03-28 00:53:00
8:53 PM,70.0,66.9,90,29.80,6.0,South,6.9,-,0.00,Rain,Light Rain,170,2014-03-28 01:53:00
9:18 PM,70.0,66.9,90,29.82,5.0,South,4.6,-,0.00,,Overcast,180,2014-03-28 02:18:00
9:53 PM,70.0,66.9,90,29.83,5.0,South,4.6,-,0.00,Rain,Light Rain,190,2014-03-28 02:53:00
10:22 PM,70.0,66.9,90,29.84,4.0,South,6.9,-,0.00,Rain,Light Rain,170,2014-03-28 03:22:00
10:53 PM,70.0,66.9,90,29.83,4.0,South,8.1,-,0.01,,Overcast,180,2014-03-28 03:53:00
11:45 PM,70.0,66.9,90,29.85,2.5,South,5.8,-,N/A,,Overcast,180,2014-03-28 04:45:00
11:53 PM,70.0,66.9,90,29.84,2.5,South,6.9,-,N/A,,Overcast,180,2014-03-28 04:53:00